This demonstration page uses our WeatherBlox Daily Observations layout. Learn more.

Left ArrowRight Arrow

39.92423, -83.80882

Hourly Observations for March 2, 2017

Temp ( °F °C ) Dew Point ( °F °C ) Humidity (%) Winds ( mph kmh ) Pressure ( in mb ) Visibility ( mi km ) Precip ( " mm )
12:21 am 00:21 Cloudy 34 1 25 -4 70 70 WNW 29 46 30.03 1017 10 16.0934 0 0
12:56 am 00:56 Cloudy 34 1.1 25 -3.9 70 70 WNW 24 39 30.01 1016 10 16.0934 0 0
1:24 am 01:24 Cloudy 34 1 25 -4 70 70 WNW 23 37 30.06 1018 10 16.0934 0 0
1:56 am 01:56 Cloudy 34 1.1 25 -3.9 70 70 WNW 20 31 30.04 1017 10 16.0934 0 0
2:56 am 02:56 Cloudy 33 0.6 25 -3.9 72 72 WNW 18 30 30.06 1018 10 16.0934 0 0
3:07 am 03:07 Cloudy 34 1 25 -4 70 70 WNW 16 26 30.09 1019 10 16.0934 0 0
3:19 am 03:19 Cloudy 34 1 25 -4 70 70 WNW 13 20 30.09 1019 10 16.0934 0 0
3:56 am 03:56 Cloudy 33 0.6 25 -3.9 72 72 WNW 16 26 30.07 1018 10 16.0934 0 0
4:26 am 04:26 Cloudy 34 1 25 -4 70 70 WNW 14 22 30.12 1020 10 16.0934 0 0
4:53 am 04:53 Cloudy 34 1 27 -3 75 75 W 12 19 30.12 1020 10 16.0934 0 0
4:56 am 04:56 Cloudy 33 0.6 25 -3.9 72 72 W 15 24 30.09 1019 10 16.0934 0 0
5:28 am 05:28 Cloudy 34 1 25 -4 70 70 WNW 15 24 30.15 1021 10 16.0934 0 0
5:44 am 05:44 Cloudy 34 1 25 -4 70 70 WNW 13 20 30.15 1021 10 16.0934 0 0
5:56 am 05:56 Cloudy 33 0.6 25 -3.9 72 72 WNW 14 22 30.11 1020 10 16.0934 0 0
6:28 am 06:28 Cloudy 34 1 25 -4 70 70 WNW 13 20 30.15 1021 10 16.0934 0 0
6:56 am 06:56 Cloudy 33 0.6 25 -3.9 72 72 W 14 22 30.13 1020 10 16.0934 0 0
7:33 am 07:33 Cloudy 34 1 27 -3 75 75 W 9 15 30.18 1022 10 16.0934 0 0
7:56 am 07:56 Cloudy 33 0.6 26 -3.3 75 75 W 9 15 30.15 1021 10 16.0934 0 0
8:56 am 08:56 Cloudy 34 1.1 24 -4.4 67 67 W 17 28 30.17 1022 10 16.0934 0 0
9:56 am 09:56 Cloudy 34 1.1 26 -3.3 73 73 W 18 30 30.19 1023 10 16.0934 0 0
10:09 am 10:09 Cloudy 34 1 25 -4 70 70 W 17 28 30.24 1024 10 16.0934 0 0
10:43 am 10:43 Cloudy 36 2 25 -4 65 65 WNW 17 28 30.24 1024 10 16.0934 0 0
10:56 am 10:56 Cloudy 35 1.7 23 -5 61 61 W 14 22 30.22 1023 10 16.0934 0 0
11:56 am 11:56 Cloudy 37 2.8 23 -5 57 57 W 20 31 30.22 1024 10 16.0934 0 0
12:56 pm 12:56 Cloudy with Light Rain 37 2.8 25 -3.9 62 62 W 16 26 30.23 1024 10 16.0934 0 0.0254
1:56 pm 13:56 Mostly Cloudy 37 2.8 25 -3.9 62 62 W 16 26 30.22 1023 10 16.0934 0 0.0254
2:22 pm 14:22 Mostly Cloudy with Light Rain 36 2 30 -1 81 81 W 13 20 30.24 1024 5 8.0467 0 0.0254
2:56 pm 14:56 Cloudy with Light Rain 35 1.7 29 -1.7 78 78 W 15 24 30.23 1024 7 11.26538 0 0.0254
3:56 pm 15:56 Mostly Cloudy 37 2.8 28 -2.2 70 70 WNW 13 20 30.23 1024 10 16.0934 0 0.0254
4:56 pm 16:56 Mostly Cloudy 38 3.3 21 -6.1 51 51 W 22 35 30.22 1024 10 16.0934 0 0
5:56 pm 17:56 Mostly Cloudy 35 1.7 27 -2.8 72 72 NW 14 22 30.25 1025 10 16.0934 0 0
6:56 pm 18:56 Clear 33 0.6 26 -3.3 75 75 WNW 10 17 30.28 1025 10 16.0934 0 0
8:56 pm 20:56 Mostly Cloudy 31 -0.6 27 -2.8 85 85 NW 9 15 30.32 1027 10 16.0934 0 0
9:56 pm 21:56 Cloudy 31 -0.6 27 -2.8 85 85 NW 14 22 30.32 1027 10 16.0934 0 0
10:56 pm 22:56 Clear 30 -1.1 24 -4.4 79 79 WNW 12 19 30.32 1027 10 16.0934 0 0
11:13 pm 23:13 Mostly Cloudy 30 -1 25 -4 80 80 NW 13 20 30.36 1028 10 16.0934 0 0
11:56 pm 23:56 Cloudy 29 -1.7 25 -3.9 85 85 NW 16 26 30.33 1027 10 16.0934 0 0.0254

Powered by AerisWeather